Date String (YYYY-MM-DD hh:mm:ss) UTC,Instrument flags,Ambient pressure (hPa),Sample flow (lpm),Bypass flow (lpm),Sample temperature (°C),Ambient temperature (°C),ASC tube jacket temperature (°C),LED temperature (°C),Box temperature (°C),Sample RH (%),Span deviation,Mass concentration (μg/m³),Mass concentration (μg/m³),Mass concentration (μg/m³)
DateTimeUTC,F1_M11,P_M11,Q1_M11,Q2_M11,T1_M11,T2_M11,T3_M11,T4_M11,T5_M11,U1_M11,ZSPAN_M11,X0_M11,X2_M11,X1_M11
2022-08-17 21:00:00,,0831.7,5.00,0.00,29.3,28.1,00.0,38.0,31.3,23.1,0000.0,0008.17,0004.43,0004.01
2022-08-17 21:01:00,,0831.8,5.00,0.00,29.3,28.3,00.0,38.0,31.4,23.5,0000.0,0008.24,0004.44,0004.01
2022-08-17 21:02:00,,0831.8,4.99,0.00,29.4,28.4,00.0,38.0,31.4,23.5,0000.0,0008.24,0004.44,0004.00
2022-08-17 21:03:00,,0831.7,5.01,0.00,29.4,28.3,00.0,38.1,31.4,23.0,0000.0,0008.29,0004.45,0003.99
2022-08-17 21:04:00,,0831.7,5.00,0.00,29.4,27.6,00.0,38.0,31.2,22.0,0000.0,0008.88,0004.47,0003.99
2022-08-17 21:05:00,,0831.7,5.02,0.00,29.3,27.1,00.0,38.0,31.0,22.0,0000.0,0008.91,0004.47,0003.99
2022-08-17 21:06:00,,0831.7,4.99,0.00,29.3,27.0,00.0,38.0,31.0,21.8,0000.0,0008.38,0004.45,0004.00
2022-08-17 21:07:00,,0831.7,5.00,0.00,29.2,27.1,00.0,38.0,30.9,22.2,0000.0,0008.15,0004.46,0004.00
2022-08-17 21:08:00,,0831.7,4.99,0.00,29.2,27.3,00.0,38.0,31.0,22.9,0000.0,0008.00,0004.47,0004.01
2022-08-17 21:09:00,,0831.7,5.00,0.00,29.2,27.5,00.0,38.0,31.1,23.2,0000.0,0007.94,0004.43,0004.01
2022-08-17 21:10:00,,0831.7,5.00,0.00,29.2,27.7,00.0,38.0,31.2,23.0,0000.0,0007.97,0004.42,0004.01
2022-08-17 21:11:00,,0831.8,5.00,0.00,29.3,27.9,00.0,38.0,31.2,21.5,0000.0,0007.94,0004.40,0004.00
2022-08-17 21:12:00,,0831.7,5.01,0.00,29.3,28.1,00.0,38.0,31.3,21.5,0000.0,0007.87,0004.37,0003.99
2022-08-17 21:13:00,,0831.8,5.00,0.00,29.3,28.2,00.0,38.0,31.4,21.6,0000.0,0007.80,0004.34,0003.99
2022-08-17 21:14:00,,0831.7,4.99,0.00,29.4,28.4,00.0,38.0,31.4,21.9,0000.0,0007.77,0004.32,0004.00
2022-08-17 21:15:00,,0831.7,5.01,0.00,29.4,28.4,00.0,38.1,31.4,22.4,0000.0,0007.32,0004.33,0004.01
2022-08-17 21:16:00,,0831.7,5.00,0.00,29.4,27.9,00.0,38.0,31.2,23.0,0000.0,0007.33,0004.34,0004.01
2022-08-17 21:17:00,,0831.7,4.99,0.00,29.3,27.2,00.0,38.0,31.0,22.3,0000.0,0007.87,0004.35,0004.00
2022-08-17 21:18:00,,0831.7,5.01,0.00,29.3,27.1,00.0,38.0,31.0,21.6,0000.0,0007.93,0004.34,0004.00
2022-08-17 21:19:00,,0831.7,4.99,0.00,29.2,27.1,00.0,38.0,31.0,21.7,0000.0,0007.93,0004.33,0004.00
2022-08-17 21:20:00,,0831.7,5.01,0.00,29.2,27.3,00.0,38.0,31.0,20.8,0000.0,0007.92,0004.32,0004.00
2022-08-17 21:21:00,,0831.7,5.00,0.00,29.2,27.5,00.0,38.0,31.1,21.6,0000.0,0007.93,0004.35,0004.00
2022-08-17 21:22:00,,0831.7,5.01,0.00,29.2,27.7,00.0,38.0,31.2,21.1,0000.0,0008.14,0004.37,0004.01
2022-08-17 21:23:00,,0831.7,4.99,0.00,29.3,27.9,00.0,38.0,31.2,20.7,0000.0,0008.17,0004.40,0004.02
2022-08-17 21:24:00,,0831.7,5.01,0.00,29.3,28.1,00.0,38.0,31.3,20.4,0000.0,0008.17,0004.41,0004.03
2022-08-17 21:25:00,,0831.7,5.01,0.00,29.4,28.2,00.0,38.0,31.4,20.6,0000.0,0008.20,0004.42,0004.03
2022-08-17 21:26:00,,0831.7,5.00,0.00,29.4,28.4,00.0,38.1,31.4,20.4,0000.0,0008.11,0004.40,0004.02
2022-08-17 21:27:00,,0831.7,5.00,0.00,29.4,28.3,00.0,38.1,31.4,20.6,0000.0,0008.01,0004.37,0004.00
2022-08-17 21:28:00,,0831.6,5.02,0.00,29.4,27.7,00.0,38.0,31.1,19.8,0000.0,0008.07,0004.41,0004.00
2022-08-17 21:29:00,,0831.5,5.00,0.00,29.3,27.1,00.0,38.0,31.0,20.8,0000.0,0008.67,0004.39,0003.98
2022-08-17 21:30:00,,0831.6,4.99,0.00,29.3,27.0,00.0,38.0,31.0,20.5,0000.0,0008.84,0004.39,0003.97
2022-08-17 21:31:00,,0831.5,5.01,0.00,29.2,27.1,00.0,38.0,30.9,20.5,0000.0,0008.80,0004.38,0003.95
2022-08-17 21:32:00,,0831.6,4.99,0.00,29.2,27.3,00.0,38.0,31.0,20.8,0000.0,0009.09,0004.35,0003.94
2022-08-17 21:33:00,,0831.6,5.00,0.00,29.2,27.5,00.0,38.0,31.1,20.7,0000.0,0009.05,0004.30,0003.93
2022-08-17 21:34:00,,0831.5,5.00,0.00,29.2,27.7,00.0,38.0,31.2,20.5,0000.0,0009.04,0004.28,0003.90
2022-08-17 21:35:00,,0831.5,5.00,0.00,29.3,27.9,00.0,38.0,31.2,20.8,0000.0,0009.00,0004.25,0003.89
2022-08-17 21:36:00,,0831.5,5.00,0.00,29.3,28.1,00.0,38.0,31.3,20.3,0000.0,0008.95,0004.23,0003.88
2022-08-17 21:37:00,,0831.5,5.00,0.00,29.4,28.2,00.0,38.0,31.4,20.5,0000.0,0008.91,0004.23,0003.88
2022-08-17 21:38:00,,0831.6,4.99,0.00,29.4,28.4,00.0,38.0,31.4,20.9,0000.0,0008.92,0004.22,0003.88
2022-08-17 21:39:00,,0831.5,5.00,0.00,29.5,28.4,00.0,38.1,31.4,21.0,0000.0,0008.87,0004.17,0003.88
2022-08-17 21:40:00,,0831.5,5.00,0.00,29.4,27.9,00.0,38.0,31.3,20.1,0000.0,0008.17,0004.18,0003.89
2022-08-17 21:41:00,,0831.5,5.00,0.00,29.4,27.3,00.0,38.0,31.1,20.3,0000.0,0008.06,0004.16,0003.89
2022-08-17 21:42:00,,0831.5,5.00,0.00,29.3,27.1,00.0,38.0,31.0,20.5,0000.0,0008.53,0004.18,0003.90
2022-08-17 21:43:00,,0831.5,5.02,0.00,29.2,27.1,00.0,38.0,30.9,21.0,0000.0,0008.20,0004.22,0003.92
2022-08-17 21:44:00,,0831.5,4.99,0.00,29.2,27.3,00.0,38.0,31.0,20.3,0000.0,0008.12,0004.26,0003.93
2022-08-17 21:45:00,,0831.5,5.00,0.00,29.2,27.5,00.0,38.0,31.1,19.8,0000.0,0008.31,0004.28,0003.94
2022-08-17 21:46:00,,0831.5,5.01,0.00,29.2,27.7,00.0,38.0,31.2,19.5,0000.0,0008.68,0004.30,0003.95
2022-08-17 21:47:00,,0831.6,5.00,0.00,29.3,27.9,00.0,38.0,31.2,20.0,0000.0,0008.63,0004.30,0003.95
2022-08-17 21:48:00,,0831.5,5.00,0.00,29.3,28.1,00.0,38.0,31.3,20.1,0000.0,0008.63,0004.30,0003.95
2022-08-17 21:49:00,,0831.5,5.01,0.00,29.4,28.2,00.0,38.0,31.4,20.3,0000.0,0008.75,0004.29,0003.95
2022-08-17 21:50:00,,0831.6,4.99,0.00,29.4,28.4,00.0,38.1,31.4,19.8,0000.0,0008.38,0004.29,0003.94
2022-08-17 21:51:00,,0831.6,5.01,0.00,29.5,28.5,00.0,38.1,31.5,20.2,0000.0,0008.47,0004.31,0003.93
2022-08-17 21:52:00,,0831.5,5.01,0.00,29.5,28.1,00.0,38.1,31.3,19.2,0000.0,0008.64,0004.33,0003.93
2022-08-17 21:53:00,,0831.5,4.99,0.00,29.4,27.4,00.0,38.0,31.1,19.9,0000.0,0008.31,0004.34,0003.92
2022-08-17 21:54:00,,0831.5,5.02,0.00,29.3,27.1,00.0,38.0,31.1,20.4,0000.0,0009.13,0004.34,0003.92
2022-08-17 21:55:00,,0831.5,4.99,0.00,29.3,27.1,00.0,38.0,31.0,20.1,0000.0,0010.41,0004.37,0003.92
2022-08-17 21:56:00,,0831.5,5.01,0.00,29.2,27.3,00.0,38.0,31.0,19.9,0000.0,0010.39,0004.36,0003.93
2022-08-17 21:57:00,,0831.5,5.00,0.00,29.2,27.4,00.0,38.0,31.1,20.5,0000.0,0010.51,0004.33,0003.92
2022-08-17 21:58:00,,0831.5,5.00,0.00,29.3,27.6,00.0,38.0,31.2,20.6,0000.0,0010.58,0004.34,0003.91
2022-08-17 21:59:00,,0831.5,4.99,0.00,29.3,27.8,00.0,38.0,31.2,20.1,0000.0,0010.74,0004.39,0003.92
